This demonstration page uses our WeatherBlox Daily Observations layout. Learn more.

Left ArrowRight Arrow

41.12389, -100.76542

Hourly Observations for November 22, 2016

Temp ( °F °C ) Dew Point ( °F °C ) Humidity (%) Winds ( mph kmh ) Pressure ( in mb ) Visibility ( mi km ) Precip ( " mm )
12:53 am 00:53 Clear 34 1.1 32 0 92 92 E 5 7 29.76 1008 10 16 0.00 0.00
1:53 am 01:53 Mostly Cloudy 34 1.1 32 0 92 92 E 7 11 29.73 1007 10 16 0.00 0.00
2:53 am 02:53 Clear 34 1.1 32 0 92 92 Calm 29.74 1007 10 16 0.00 0.00
3:53 am 03:53 Clear 34 1.1 31 -0.6 89 89 NNE 8 13 29.73 1007 10 16 0.00 0.00
4:53 am 04:53 Clear 33 0.6 31 -0.6 92 92 NE 12 19 29.73 1007 9 14 0.00 0.00
5:53 am 05:53 Clear 34 1.1 31 -0.6 89 89 NNE 10 17 29.75 1007 9 14 0.00 0.00
6:53 am 06:53 Mostly Cloudy 34 1.1 31 -0.6 89 89 NNE 12 19 29.76 1008 8 13 0.00 0.00
7:53 am 07:53 Partly Cloudy with Mist and Fog 34 1.1 32 0 92 92 N 13 20 29.78 1009 4 6 0.00 0.00
8:10 am 08:10 Mostly Cloudy with Mist and Fog 34 1.1 32 0 92 92 NNE 12 19 29.85 1011 4 6 0.00 0.00
8:19 am 08:19 Mostly Cloudy with Mist and Fog 34 1.1 32 0 92 92 NNE 12 19 29.85 1011 3 5 0.00 0.00
8:53 am 08:53 Cloudy with Mist and Fog 35 1.7 33 0.6 93 93 N 15 24 29.82 1010 4 6 0.00 0.00
9:53 am 09:53 Cloudy with Light Rain 37 2.8 34 1.1 89 89 N 13 20 29.84 1011 3 5 0.01 0.25
10:17 am 10:17 Cloudy 37 3 34 1 87 87 N 15 24 29.88 1012 7 11 0.00 0.00
10:39 am 10:39 Cloudy with Light Rain 38 3.3 35 1.7 89 89 N 12 19 29.88 1012 5 8 0.00 0.03
10:53 am 10:53 Cloudy with Light Rain 38 3.3 35 1.7 89 89 NNW 13 20 29.85 1011 5 8 0.01 0.25
11:22 am 11:22 Cloudy 37 3 36 2 93 93 N 13 20 29.88 1012 8 13 0.00 0.00
11:53 am 11:53 Cloudy with Rain 38 3.3 35 1.7 89 89 NNW 13 20 29.85 1011 2 3 0.02 0.51
11:57 am 11:57 Cloudy with Heavy Rain 38 3.3 35 1.7 89 89 NNW 12 19 29.88 1012 1 2 0.02 0.51
12:05 pm 12:05 Cloudy with Heavy Rain 37 3 36 2 93 93 NNW 13 20 29.88 1012 1 2 0.00 0.00
12:13 pm 12:13 Cloudy with Rain 38 3.3 35 1.7 89 89 NNW 12 19 29.88 1012 2 3 0.12 3.05
12:21 pm 12:21 Cloudy with Rain 37 3 36 2 93 93 NNW 12 19 29.88 1012 3 5 0.00 0.00
12:50 pm 12:50 Cloudy with Light Rain 37 3 36 2 93 93 NW 14 22 29.88 1012 10 16 0.15 3.81
12:53 pm 12:53 Cloudy with Light Rain 38 3.3 35 1.7 89 89 NNW 9 15 29.86 1011 10 16 0.15 3.81
1:53 pm 13:53 Cloudy with Light Rain 40 4.4 36 2.2 86 86 NNW 7 11 29.86 1011 10 16 0.00 0.03
2:53 pm 14:53 Cloudy 42 5.6 37 2.8 82 82 N 9 15 29.89 1012 10 16 0.00 0.03
3:34 pm 15:34 Cloudy 43 6.1 37 2.8 80 80 N 7 11 29.91 1013 10 16 0.00 0.00
3:53 pm 15:53 Cloudy 43 6.1 36 2.2 76 76 N 16 26 29.91 1013 10 16 0.00 0.00
4:12 pm 16:12 Cloudy 45 7 36 2 71 71 N 17 28 29.88 1012 10 16 0.00 0.00
4:53 pm 16:53 Cloudy 44 6.7 35 1.7 71 71 N 9 15 29.94 1014 10 16 0.00 0.00
5:53 pm 17:53 Cloudy 43 6.1 34 1.1 71 71 N 9 15 29.98 1015 10 16 0.00 0.00
6:53 pm 18:53 Mostly Cloudy 39 3.9 33 0.6 79 79 NW 5 7 30.01 1016 10 16 0.00 0.00
7:53 pm 19:53 Cloudy 39 3.9 35 1.7 86 86 WNW 6 9 30.04 1017 10 16 0.00 0.00
8:53 pm 20:53 Cloudy 43 6.1 33 0.6 68 68 NNW 14 22 30.06 1018 10 16 0.00 0.00
9:53 pm 21:53 Cloudy 43 6.1 33 0.6 68 68 NNW 12 19 30.08 1019 10 16 0.00 0.00
10:53 pm 22:53 Mostly Cloudy 43 6.1 32 0 65 65 NW 12 19 30.09 1019 10 16 0.00 0.00
11:53 pm 23:53 Cloudy 44 6.7 31 -0.6 60 60 NNW 10 17 30.09 1019 10 16 0.00 0.00

Powered by AerisWeather